Regional Weather Roundup
Issued by NWS Cleveland, OH

Home | Current Version | Previous Version | Graphics & Text | Print | Product List | Glossary On
Versions: 1 2 3 4 5 6 7 8 9 10 11 12 13 14 15 16 17 18 19 20 21 22 23 24 25 26 27 28 29 30 31 32 33 34 35 36 37 38 39 40 41 42 43 44 45 46 47 48 49 50
000
ASUS41 KCLE 210610
RWRCLE
OHIO REGIONAL WEATHER ROUNDUP
NATIONAL WEATHER SERVICE CLEVELAND, OH
200 AM EDT MON APR 21 2014

NOTE: "FAIR" INDICATES FEW OR NO CLOUDS BELOW 12,000 FEET WITH NO
SIGNIFICANT WEATHER AND/OR OBSTRUCTIONS TO VISIBILITY.

OHZ001>008-015>018-024>027-034-035-043-044-210700-
   NORTHWEST OHIO

CITY           SKY/WX    TMP DP  RH WIND       PRES   REMARKS
DEFIANCE       FAIR      48  35  60 CALM      30.08F
FINDLAY        FAIR      51  39  63 S5        30.07F
TOLEDO EXPRESS FAIR      49  39  68 CALM      30.08F
TOLEDO EXEC    FAIR      50  38  63 CALM      30.09F
LIMA           FAIR      57  35  43 S7        30.09F
$$

OHZ009>014-019>023-028>033-038-089-210700-
   NORTHEAST OHIO

CITY           SKY/WX    TMP DP  RH WIND       PRES   REMARKS
CLE-HOPKINS    FAIR      52  33  48 S6        30.12F
CLE-LAKEFRONT  FAIR      56  36  47 CALM      30.08F
CUY CO. ARPT   NOT AVBL
LORAIN-ELYRIA  FAIR      52  39  61 CALM      30.10F
ASHTABULA      FAIR      55  25  31 S6        30.12F
AKRON-CANTON   FAIR      53  27  36 CALM      30.12F
WOOSTER        FAIR      43  37  79 CALM      30.11F
MANSFIELD      FAIR      52  40  63 S3        30.11F
YOUNGSTOWN     FAIR      55  26  32 SE9       30.12F
$$

OHZ042-051>053-060>062-070>072-077>081-210700-
  SOUTHWEST OHIO

CITY           SKY/WX    TMP DP  RH WIND       PRES   REMARKS
CINC-COVINGTON MOCLDY    53  43  68 CALM      30.09F
CINC-LUNKEN    FAIR      48  45  89 CALM      30.10F
HAMILTON       FAIR      48  41  76 CALM      30.10S
DAYTON         FAIR      56  37  49 CALM      30.10S
WRIGHT-PAT AFB FAIR      51  43  72 CALM      30.09F
DAYTON GENERAL FAIR      54  41  61 E3        30.08F
WILMINGTON     FAIR      52  40  63 SE3       30.10S
$$

OHZ036-037-039>041-045>050-054>059-063>069-073>076-082>088-210700-
  CENTRAL AND SOUTHEAST OHIO

CITY           SKY/WX    TMP DP  RH WIND       PRES   REMARKS
COLUMBUS       FAIR      54  42  64 E3        30.10F
OSU AIRPORT    FAIR      53  39  59 CALM      30.10F
BOLTON FIELD   FAIR      50  42  72 CALM      30.10F
RICKENBACK AFB FAIR      52  43  73 E3        30.09F
NEWARK         FAIR      44  38  79 CALM      30.10F
MARION         FAIR      49  42  77 CALM      30.10F
LANCASTER      FAIR      42  39  89 CALM      30.11S
ZANESVILLE     FAIR      48  33  56 CALM      30.10F
NEW PHILLY     FAIR      46  34  62 CALM      30.12F
$$



USA.gov is the U.S. government's official web portal to all federal, state and local government web resources and services.